Anoka County, MN

12:18 PM CST on December 06, 2019 (GMT -0600)
Anoka County / Blaine Airport

Weather History for KANE - August, 2019

Change the Weather History Date:

Sunday, August 11, 2019

  Actual Average Record
Temperature  
Mean Temperature 73 °F -  
Max Temperature 80 °F 76 °F 91 °F (2010)
Min Temperature 66 °F 57 °F 48 °F (2004)
Cooling Degree Days 8    
Growing Degree Days 23 (Base 50)    
Moisture  
Dew Point 66 °F    
Average Humidity 89    
Maximum Humidity 100    
Minimum Humidity 58    
Precipitation  
Precipitation 0.00 in - - ()
Sea Level Pressure  
Sea Level Pressure 29.96 in    
Wind  
Wind Speed 2 mph (NNE)    
Max Wind Speed 9 mph    
Max Gust Speed -    
Visibility 10 miles    
Events      
Averages and records for this station are not official NWS values.
T = Trace of Precipitation, MM = Missing Value Source: NWS Daily Summary

Daily Weather History Graph

Daily Weather History Graph

Search for Another Location

Airport or City:

Astronomy

Aug. 11, 2019 Rise Set
Actual Time 6:09 AM CDT 8:26 PM CDT
Civil Twilight 5:36 AM CDT 8:58 PM CDT
Nautical Twilight 4:56 AM CDT 9:38 PM CDT
Astronomical Twilight 4:10 AM CDT 10:23 PM CDT
Moon 6:12 PM CDT (8/11) 2:24 AM CDT (8/11)
Length of Visible Light 15h 21m
Length of Day
14h 16m
Waxing Gibbous, 87% of the Moon is Illuminated
Aug 11
Waxing Gibbous
Aug 15
Full
Aug 23
Last Quarter
Aug 30
New
Sep 5
First Quarter

Hourly Weather History & Observations

Time (CDT) Temp. Heat Index Dew Point Humidity Pressure Visibility Wind Dir Wind Speed Gust Speed Precip Events Conditions
12:15 AM 66.2 °F - 64.4 °F 94% 29.95 in 10.0 mi Calm Calm - N/A   Overcast
12:19 AM 66.2 °F - 64.4 °F 94% 29.95 in 10.0 mi ENE 3.5 mph - N/A   Overcast
12:37 AM 66.2 °F - 64.4 °F 94% 29.95 in 10.0 mi ENE 3.5 mph - N/A   Overcast
12:56 AM 66.2 °F - 64.4 °F 94% 29.95 in 10.0 mi ENE 3.5 mph - N/A   Mostly Cloudy
1:16 AM 66.2 °F - 64.4 °F 94% 29.95 in 10.0 mi ENE 3.5 mph - N/A   Overcast
1:36 AM 66.2 °F - 64.4 °F 94% 29.96 in 10.0 mi NE 3.5 mph - N/A   Overcast
1:58 AM 66.2 °F - 64.4 °F 94% 29.95 in 10.0 mi Calm Calm - N/A   Overcast
2:17 AM 66.2 °F - 64.4 °F 94% 29.95 in 10.0 mi North 3.5 mph - N/A   Mostly Cloudy
2:36 AM 66.2 °F - 64.4 °F 94% 29.95 in 10.0 mi NNE 4.6 mph - N/A   Overcast
2:56 AM 66.2 °F - 64.4 °F 94% 29.94 in 10.0 mi NE 4.6 mph - N/A   Overcast
3:15 AM 66.2 °F - 64.4 °F 94% 29.95 in 10.0 mi ENE 3.5 mph - N/A   Overcast
3:19 AM 66.2 °F - 64.4 °F 94% 29.95 in 10.0 mi Calm Calm - N/A   Overcast
3:38 AM 66.2 °F - 64.4 °F 94% 29.96 in 10.0 mi Calm Calm - N/A   Overcast
3:55 AM 66.2 °F - 64.4 °F 94% 29.95 in 10.0 mi Calm Calm - N/A   Overcast
4:16 AM 66.2 °F - 66.2 °F 100% 29.95 in 10.0 mi Calm Calm - N/A   Overcast
4:59 AM 66.2 °F - 66.2 °F 100% 29.96 in 10.0 mi Calm Calm - N/A   Overcast
5:16 AM 66.2 °F - 66.2 °F 100% 29.95 in 10.0 mi Calm Calm - N/A   Overcast
5:36 AM 66.2 °F - 66.2 °F 100% 29.95 in 10.0 mi Calm Calm - N/A   Overcast
5:56 AM 66.2 °F - 66.2 °F 100% 29.96 in 10.0 mi Calm Calm - N/A   Overcast
6:15 AM 66.2 °F - 66.2 °F 100% 29.96 in 10.0 mi Calm Calm - N/A   Overcast
6:37 AM 66.2 °F - 66.2 °F 100% 29.98 in 10.0 mi Calm Calm - N/A   Overcast
6:56 AM 66.2 °F - 66.2 °F 100% 29.97 in 10.0 mi North 4.6 mph - N/A   Overcast
6:58 AM 66.2 °F - 66.2 °F 100% 29.97 in 7.0 mi North 3.5 mph - N/A   Overcast
7:48 AM 66.2 °F - 66.2 °F 100% 29.97 in 7.0 mi NNE 4.6 mph - N/A   Overcast
8:45 AM 68.0 °F - 66.2 °F 94% 29.99 in 10.0 mi NNE 4.6 mph - N/A   Overcast
9:45 AM 69.8 °F - 66.2 °F 88% 29.99 in 10.0 mi NNE 4.6 mph - N/A   Overcast
10:45 AM 69.8 °F - 66.2 °F 88% 30.01 in 10.0 mi NNE 3.5 mph - N/A   Overcast
11:45 AM 73.4 °F - 68.0 °F 83% 30.01 in 10.0 mi North 9.2 mph - N/A   Overcast
12:45 PM 75.2 °F - 66.2 °F 73% 30.01 in 10.0 mi NNE 6.9 mph - N/A   Overcast
1:45 PM 75.2 °F - 66.2 °F 73% 30.00 in 10.0 mi NNE 6.9 mph - N/A   Overcast
2:45 PM 78.8 °F - 66.2 °F 65% 29.99 in 10.0 mi NE 4.6 mph - N/A   Mostly Cloudy
3:45 PM 78.8 °F - 64.4 °F 61% 29.98 in 10.0 mi North 4.6 mph - N/A   Mostly Cloudy
4:45 PM 80.6 °F 82.3 °F 64.4 °F 58% 29.97 in 10.0 mi North 4.6 mph - N/A   Scattered Clouds
5:45 PM 80.6 °F 82.3 °F 64.4 °F 58% 29.96 in 10.0 mi NNE 4.6 mph - N/A   Scattered Clouds
6:45 PM 80.6 °F 82.3 °F 64.4 °F 58% 29.94 in 10.0 mi NNE 4.6 mph - N/A   Scattered Clouds
7:45 PM 78.8 °F - 66.2 °F 65% 29.94 in 10.0 mi Calm Calm - N/A   Partly Cloudy
8:45 PM 73.4 °F - 66.2 °F 78% 29.95 in 10.0 mi Calm Calm - N/A   Clear
9:45 PM 71.6 °F - 66.2 °F 83% 29.96 in 10.0 mi Calm Calm - N/A   Clear
10:19 PM 68.0 °F - 66.2 °F 94% 29.96 in 10.0 mi Calm Calm - N/A   Clear
10:36 PM 69.8 °F - 66.2 °F 88% 29.97 in 10.0 mi Calm Calm - N/A   Clear
10:56 PM 69.8 °F - 66.2 °F 88% 29.96 in 10.0 mi Calm Calm - N/A   Clear
11:16 PM 69.8 °F - 66.2 °F 88% 29.96 in 10.0 mi Calm Calm - N/A   Clear
11:35 PM 66.2 °F - 66.2 °F 100% 29.96 in 10.0 mi Calm Calm - N/A   Clear
11:40 PM 68.0 °F - 66.2 °F 94% 29.96 in 10.0 mi South 3.5 mph - N/A   Clear
11:57 PM 68.0 °F - 66.2 °F 94% 29.96 in 10.0 mi South 3.5 mph - N/A   Clear